Content
SEND FEEDBACK

Daily
Averages
Monthly
Summary
United States of America

ST. LOUIS, MISSOURI


Home > North America > United States > Missouri
Elevation: 535 feet     Latitude: 38 45N     Longitude: 090 22W

WEATHER
 
SELECT A DAY
Number of Records: 196,207;   Date Range: 1/1/95 - 7/7/14
 
SHARE

PRINT THIS DATA

[ ← Previous Day ]
WEATHER ALMANAC - JANUARY 26, 2014
[ Next Day → ]
[ °C ]   °F
Weather ElementAverageHighLow
Temperature44.8 °F57.9 °F (12:54 pm)25 °F (11:54 pm)
Dewpoint22.5 °F30.9 °F (10:54 am)-2 °F (1:54 am)
Humidity42.5 %62 % (9:54 pm)23 % (2:54 am)
Barometer29.70 in30.06 in (11:54 pm)29.59 in (1:54 pm)
Wind Speed15.5 mph29.9 mph (9:23 pm)
Wind Gust51.8 mph (9:14 pm)
Weather ElementAverage
Visibility9.8 mi
Wind DirectionWSW (261.6 °)

Weather ElementTotal
Precipitation---
Heating Degree Days23.6 (Base 65)
Averaged from 25 records on January 26, 2014
WEATHER CONDITIONS BREAKOUT
WIND DIRECTION BREAKOUT
WEATHER BY HOUR - JANUARY 26, 2014
[ °C ]   °F
Local TimeTemperatureDewpointHumidityBarometerVisibilityWind DirectionWind SpeedGust SpeedPrecipitationEventsConditions
1:54 AM28.9 °F-2.0 °F26 %29.80 in10.0 miSouth (170°)10.4 mphOvercast
2:54 AM32.0 °F-2.0 °F23 %29.70 in10.0 miSouth (190°)10.4 mph18.4 mphPartly Cloudy
3:54 AM34.0 °F8.1 °F34 %29.67 in10.0 miSSW (210°)9.2 mph16.1 mphOvercast
4:54 AM36.0 °F14.0 °F41 %29.62 in10.0 miSW (220°)13.8 mph21.9 mphScattered Clouds
5:54 AM41.0 °F21.0 °F45 %29.62 in10.0 miSW (230°)18.4 mph25.3 mphClear
6:54 AM39.9 °F23.0 °F51 %29.64 in10.0 miSW (230°)18.4 mph25.3 mphClear
7:54 AM42.1 °F25.0 °F51 %29.65 in10.0 miSW (230°)12.7 mph21.9 mphPartly Cloudy
8:54 AM45.0 °F27.0 °F49 %29.66 in10.0 miWSW (250°)15.0 mph20.7 mphClear
9:54 AM50.0 °F28.9 °F44 %29.65 in10.0 miWSW (250°)17.3 mphClear
10:54 AM55.0 °F30.9 °F40 %29.65 in10.0 miWNW (290°)17.3 mph26.5 mphPartly Cloudy
11:54 AM55.9 °F30.0 °F37 %29.62 in10.0 miWest (260°)13.8 mph25.3 mphScattered Clouds
12:54 PM57.9 °F30.0 °F35 %29.60 in10.0 miWSW (250°)17.3 mphClear
1:54 PM57.9 °F28.9 °F33 %29.59 in10.0 miWest (260°)18.4 mph26.5 mphScattered Clouds
2:54 PM57.9 °F30.0 °F35 %29.59 in10.0 miWest (270°)15.0 mph23.0 mphScattered Clouds
3:54 PM55.9 °F28.9 °F36 %29.60 in10.0 miWest (260°)12.7 mphScattered Clouds
4:54 PM55.0 °F28.0 °F35 %29.62 in10.0 miWest (270°)11.5 mphClear
5:54 PM52.0 °F28.0 °F40 %29.65 in10.0 miWest (280°)9.2 mphClear
6:54 PM50.0 °F27.0 °F41 %29.66 in10.0 miWSW (240°)9.2 mphClear
7:54 PM48.9 °F27.0 °F43 %29.68 in10.0 miWest (260°)9.2 mphPartly Cloudy
8:54 PM48.0 °F27.0 °F44 %29.72 in10.0 miWSW (240°)10.4 mphMostly Cloudy
9:14 PM44.6 °F26.6 °F49 %29.77 in10.0 miNNW (340°)23.0 mph51.8 mphSqualls
9:23 PM41.0 °F24.8 °F53 %29.80 in10.0 miNNW (340°)29.9 mph42.6 mphScattered Clouds
9:54 PM36.0 °F24.1 °F62 %29.88 in10.0 miNNW (340°)19.6 mph35.7 mphPartly Cloudy
10:54 PM30.0 °F18.0 °F61 %29.97 in6.0 miNW (320°)21.9 mph34.5 mph0.00 inSnowLight Snow
11:54 PM25.0 °F10.9 °F55 %30.06 in10.0 miNNW (340°)24.2 mph33.4 mph0.00 inOvercast
Hourly data recorded from KSUS, located miles away from St. Louis, Missouri







STORIES FROM OUR PARTNERS